Location: Baller�as
(41.9020°N, 0.1554°W)
Time: 11:52:27
(UTC+00:00)

Tsikada Rocket - Pass Details

Date: 10 August 2020
Orbit: 957 x 1010 km, 82.9° (Epoch: 21 September)

Event Time Altitude Azimuth Distance (km) Brightness Sun altitude
Rises 22:41:35 0° 354° (N) 3,731 8.1 -29.7°
Reaches altitude 10° 22:44:09 10° 356° (N) 2,771 7.2 -29.9°
Enters shadow 22:50:13 71° 58° (ENE) 1,040 4.0 -30.3°
